TimeEST,TemperatureF,Dew PointF,Humidity,Sea Level PressureIn,VisibilityMPH,Wind Direction,Wind SpeedMPH,Gust SpeedMPH,PrecipitationIn,Events,Conditions,WindDirDegrees,DateUTC
12:15 AM,37.4,37.4,100,30.21,10.0,NW,3.5,-,0.02,,Scattered Clouds,320,2013-01-18 05:15:00
12:35 AM,39.2,39.2,100,30.22,10.0,NNW,3.5,-,0.03,,Scattered Clouds,330,2013-01-18 05:35:00
12:55 AM,37.4,37.4,100,30.23,10.0,Calm,Calm,-,0.04,,Clear,0,2013-01-18 05:55:00
1:15 AM,37.4,37.4,100,30.24,10.0,NNW,3.5,-,0.01,,Clear,330,2013-01-18 06:15:00
1:35 AM,37.4,37.4,100,30.25,10.0,NNW,4.6,-,0.01,,Clear,330,2013-01-18 06:35:00
1:55 AM,37.4,37.4,100,30.26,10.0,Calm,Calm,-,0.01,,Clear,0,2013-01-18 06:55:00
2:15 AM,35.6,35.6,100,30.28,7.0,NW,4.6,-,N/A,,Clear,310,2013-01-18 07:15:00
2:35 AM,37.4,35.6,93,30.28,10.0,NNW,4.6,-,N/A,,Clear,340,2013-01-18 07:35:00
2:55 AM,37.4,35.6,93,30.28,10.0,NNW,5.8,-,N/A,,Clear,330,2013-01-18 07:55:00
3:15 AM,35.6,33.8,93,30.29,10.0,NNW,5.8,-,N/A,,Clear,340,2013-01-18 08:15:00
3:35 AM,35.6,33.8,93,30.29,10.0,NW,4.6,-,N/A,,Clear,320,2013-01-18 08:35:00
3:55 AM,35.6,33.8,93,30.30,10.0,NNW,3.5,-,N/A,,Clear,330,2013-01-18 08:55:00
4:15 AM,35.6,33.8,93,30.30,10.0,Calm,Calm,-,N/A,,Clear,0,2013-01-18 09:15:00
4:35 AM,33.8,33.8,100,30.30,10.0,NW,3.5,-,N/A,,Clear,320,2013-01-18 09:35:00
4:55 AM,35.6,33.8,93,30.30,10.0,North,4.6,-,N/A,,Clear,350,2013-01-18 09:55:00
5:15 AM,33.8,32.0,93,30.30,10.0,Calm,Calm,-,N/A,,Clear,0,2013-01-18 10:15:00
5:35 AM,33.8,32.0,93,30.31,10.0,NW,3.5,-,N/A,,Clear,310,2013-01-18 10:35:00
5:55 AM,33.8,32.0,93,30.31,10.0,NW,4.6,-,N/A,,Clear,320,2013-01-18 10:55:00
6:15 AM,35.6,32.0,87,30.32,10.0,NNW,4.6,-,N/A,,Clear,330,2013-01-18 11:15:00
6:35 AM,33.8,32.0,93,30.33,10.0,NW,3.5,-,N/A,,Clear,320,2013-01-18 11:35:00
6:55 AM,33.8,32.0,93,30.34,10.0,NW,5.8,-,N/A,,Clear,320,2013-01-18 11:55:00
7:15 AM,33.8,32.0,93,30.35,10.0,WNW,4.6,-,N/A,,Clear,300,2013-01-18 12:15:00
7:35 AM,33.8,32.0,93,30.36,10.0,NNW,4.6,-,N/A,,Clear,340,2013-01-18 12:35:00
7:55 AM,35.6,30.2,81,30.37,10.0,North,5.8,-,N/A,,Clear,350,2013-01-18 12:55:00
8:15 AM,35.6,32.0,87,30.39,10.0,Calm,Calm,-,N/A,,Clear,0,2013-01-18 13:15:00
8:35 AM,35.6,32.0,87,30.41,10.0,Calm,Calm,-,N/A,,Clear,0,2013-01-18 13:35:00
8:55 AM,37.4,32.0,81,30.42,10.0,Calm,Calm,-,N/A,,Clear,0,2013-01-18 13:55:00
9:15 AM,39.2,32.0,75,30.44,10.0,Calm,Calm,-,N/A,,Clear,0,2013-01-18 14:15:00
9:35 AM,41.0,32.0,70,30.45,10.0,North,4.6,-,N/A,,Clear,10,2013-01-18 14:35:00
9:55 AM,42.8,32.0,66,30.47,10.0,NNE,5.8,-,N/A,,Clear,30,2013-01-18 14:55:00
10:15 AM,42.8,32.0,66,30.48,10.0,NE,4.6,-,N/A,,Clear,50,2013-01-18 15:15:00
10:35 AM,44.6,32.0,61,30.48,10.0,ENE,4.6,-,N/A,,Clear,60,2013-01-18 15:35:00
10:55 AM,44.6,32.0,61,30.49,10.0,ENE,5.8,-,N/A,,Clear,60,2013-01-18 15:55:00
11:15 AM,46.4,32.0,57,30.48,10.0,NE,5.8,-,N/A,,Clear,50,2013-01-18 16:15:00
11:35 AM,46.4,32.0,57,30.48,10.0,NNE,6.9,-,N/A,,Clear,30,2013-01-18 16:35:00
11:55 AM,48.2,30.2,50,30.48,10.0,North,10.4,-,N/A,,Clear,10,2013-01-18 16:55:00
12:15 PM,48.2,30.2,50,30.47,10.0,North,5.8,-,N/A,,Clear,10,2013-01-18 17:15:00
12:35 PM,50.0,26.6,40,30.47,10.0,NNE,3.5,-,N/A,,Clear,30,2013-01-18 17:35:00
12:55 PM,50.0,30.2,47,30.46,10.0,North,4.6,-,N/A,,Clear,10,2013-01-18 17:55:00
1:15 PM,50.0,26.6,40,30.45,10.0,North,6.9,-,N/A,,Clear,10,2013-01-18 18:15:00
1:35 PM,50.0,26.6,40,30.45,10.0,Calm,Calm,-,N/A,,Clear,0,2013-01-18 18:35:00
1:55 PM,51.8,26.6,38,30.45,10.0,ENE,4.6,-,N/A,,Clear,70,2013-01-18 18:55:00
2:15 PM,51.8,24.8,35,30.44,10.0,NW,4.6,-,N/A,,Clear,320,2013-01-18 19:15:00
2:35 PM,53.6,26.6,35,30.44,10.0,Calm,Calm,-,N/A,,Clear,0,2013-01-18 19:35:00
2:55 PM,53.6,24.8,33,30.45,10.0,Calm,Calm,-,N/A,,Clear,0,2013-01-18 19:55:00
3:15 PM,53.6,26.6,35,30.44,10.0,Calm,Calm,-,N/A,,Clear,0,2013-01-18 20:15:00
3:35 PM,53.6,24.8,33,30.44,10.0,Calm,Calm,-,N/A,,Clear,0,2013-01-18 20:35:00
3:55 PM,53.6,24.8,33,30.44,10.0,Calm,Calm,-,N/A,,Clear,0,2013-01-18 20:55:00
4:15 PM,53.6,26.6,35,30.45,10.0,ESE,3.5,-,N/A,,Clear,110,2013-01-18 21:15:00
4:35 PM,53.6,28.4,38,30.45,10.0,SE,4.6,-,N/A,,Clear,130,2013-01-18 21:35:00
4:55 PM,51.8,26.6,38,30.45,10.0,Calm,Calm,-,N/A,,Clear,0,2013-01-18 21:55:00
5:15 PM,51.8,30.2,44,30.45,10.0,Calm,Calm,-,N/A,,Clear,0,2013-01-18 22:15:00
5:35 PM,50.0,32.0,50,30.46,10.0,Calm,Calm,-,N/A,,Clear,0,2013-01-18 22:35:00
5:55 PM,46.4,32.0,57,30.47,10.0,Calm,Calm,-,N/A,,Clear,0,2013-01-18 22:55:00
6:15 PM,44.6,32.0,61,30.47,10.0,Calm,Calm,-,N/A,,Clear,0,2013-01-18 23:15:00
6:35 PM,44.6,32.0,61,30.47,10.0,Calm,Calm,-,N/A,,Clear,0,2013-01-18 23:35:00
6:55 PM,42.8,32.0,66,30.48,10.0,Calm,Calm,-,N/A,,Clear,0,2013-01-18 23:55:00
7:15 PM,42.8,32.0,66,30.48,10.0,Calm,Calm,-,N/A,,Clear,0,2013-01-19 00:15:00
7:35 PM,41.0,33.8,76,30.48,10.0,ESE,3.5,-,N/A,,Clear,120,2013-01-19 00:35:00
7:55 PM,41.0,32.0,70,30.48,10.0,Calm,Calm,-,N/A,,Clear,0,2013-01-19 00:55:00
8:15 PM,39.2,32.0,75,30.48,10.0,Calm,Calm,-,N/A,,Clear,0,2013-01-19 01:15:00
8:35 PM,37.4,32.0,81,30.48,10.0,Calm,Calm,-,N/A,,Clear,0,2013-01-19 01:35:00
8:55 PM,39.2,32.0,75,30.48,10.0,ESE,3.5,-,N/A,,Clear,120,2013-01-19 01:55:00
9:15 PM,39.2,32.0,75,30.48,10.0,Calm,Calm,-,N/A,,Clear,0,2013-01-19 02:15:00
9:35 PM,37.4,32.0,81,30.49,10.0,Calm,Calm,-,N/A,,Clear,0,2013-01-19 02:35:00
9:55 PM,35.6,32.0,87,30.49,10.0,Calm,Calm,-,N/A,,Clear,0,2013-01-19 02:55:00
10:35 PM,35.6,32.0,87,30.49,10.0,Calm,Calm,-,N/A,,Clear,0,2013-01-19 03:35:00
10:55 PM,33.8,32.0,93,30.48,10.0,Calm,Calm,-,N/A,,Clear,0,2013-01-19 03:55:00
11:15 PM,35.6,32.0,87,30.48,10.0,Calm,Calm,-,N/A,,Clear,0,2013-01-19 04:15:00
11:35 PM,33.8,32.0,93,30.48,10.0,Calm,Calm,-,N/A,,Clear,0,2013-01-19 04:35:00
11:55 PM,33.8,32.0,93,30.48,10.0,Calm,Calm,-,N/A,,Clear,0,2013-01-19 04:55:00